TimeEST,TemperatureF,Dew PointF,Humidity,Sea Level PressureIn,VisibilityMPH,Wind Direction,Wind SpeedMPH,Gust SpeedMPH,PrecipitationIn,Events,Conditions,WindDirDegrees,DateUTC
12:53 AM,21.0,15.1,78,30.08,10.0,West,4.6,-,N/A,,Clear,270,2013-03-04 05:53:00
1:53 AM,21.0,14.0,74,30.10,10.0,WNW,4.6,-,N/A,,Clear,300,2013-03-04 06:53:00
2:53 AM,19.9,15.1,81,30.09,10.0,Calm,Calm,-,N/A,,Clear,0,2013-03-04 07:53:00
3:53 AM,19.0,14.0,81,30.09,10.0,West,4.6,-,N/A,,Clear,260,2013-03-04 08:53:00
4:53 AM,19.0,14.0,81,30.11,10.0,West,6.9,-,N/A,,Clear,260,2013-03-04 09:53:00
5:53 AM,18.0,15.1,88,30.13,10.0,West,5.8,-,N/A,,Clear,260,2013-03-04 10:53:00
6:53 AM,17.1,14.0,88,30.14,10.0,West,3.5,-,N/A,,Clear,270,2013-03-04 11:53:00
7:53 AM,19.9,16.0,85,30.16,10.0,West,6.9,-,N/A,,Clear,270,2013-03-04 12:53:00
8:53 AM,23.0,18.0,81,30.17,10.0,WNW,5.8,-,N/A,,Clear,290,2013-03-04 13:53:00
9:53 AM,25.0,19.9,81,30.16,10.0,West,3.5,-,N/A,,Clear,280,2013-03-04 14:53:00
10:53 AM,28.0,19.9,72,30.16,10.0,Variable,3.5,-,N/A,,Clear,0,2013-03-04 15:53:00
11:53 AM,30.0,16.0,56,30.14,10.0,West,4.6,-,N/A,,Clear,270,2013-03-04 16:53:00
12:53 PM,32.0,19.9,61,30.13,10.0,WNW,3.5,-,N/A,,Clear,300,2013-03-04 17:53:00
1:53 PM,34.0,18.0,52,30.10,10.0,Calm,Calm,-,N/A,,Clear,0,2013-03-04 18:53:00
2:53 PM,35.1,17.1,48,30.09,10.0,NW,3.5,-,N/A,,Clear,310,2013-03-04 19:53:00
3:53 PM,37.0,18.0,46,30.08,10.0,WSW,4.6,-,N/A,,Clear,250,2013-03-04 20:53:00
4:53 PM,35.1,17.1,48,30.08,10.0,Calm,Calm,-,N/A,,Clear,0,2013-03-04 21:53:00
5:53 PM,33.1,18.0,54,30.07,10.0,SE,3.5,-,N/A,,Clear,140,2013-03-04 22:53:00
6:53 PM,33.1,18.0,54,30.08,10.0,East,3.5,-,N/A,,Clear,90,2013-03-04 23:53:00
7:53 PM,30.9,19.0,61,30.07,10.0,East,4.6,-,N/A,,Clear,100,2013-03-05 00:53:00
8:53 PM,30.9,21.0,67,30.06,10.0,East,5.8,-,N/A,,Clear,80,2013-03-05 01:53:00
9:53 PM,30.9,21.9,69,30.07,10.0,East,4.6,-,N/A,,Mostly Cloudy,90,2013-03-05 02:53:00
10:53 PM,28.9,19.9,69,30.07,10.0,ENE,5.8,-,N/A,,Scattered Clouds,70,2013-03-05 03:53:00
11:53 PM,30.9,19.9,64,30.09,10.0,NE,3.5,-,N/A,,Partly Cloudy,50,2013-03-05 04:53:00